FW9167 Weather Reports


Display with metric or nautical units.
time (UTC)temp
F
wind
direction
speed
MPH
gust
MPH
rain 1hr
in
rain 24hr
in
rain mn
in
humidity
%
barometer
mb
20260902104603 55 11 0.0 1.0 0.00 0.00 0.00 72 1009.0
20260902103102 55 330 0.0 3.0 0.00 0.00 0.00 70 1008.8
20260902101603 55 353 0.0 1.0 0.00 0.00 0.00 69 1008.8
20260902094603 54 319 0.0 1.0 0.00 0.00 0.00 71 1008.7
20260902093106 54 313 0.0 1.0 0.00 0.00 0.00 70 1008.4
20260902091603 52 264 0.0 1.0 0.00 0.00 0.00 74 1008.6
20260902090104 52 4 0.0 2.0 0.00 0.00 0.00 73 1008.4
20260902084603 51 255 0.0 1.0 0.00 0.00 0.00 76 1008.4
20260902083102 50 338 0.0 1.0 0.00 0.00 0.00 75 1008.4
20260902081602 50 1 0.0 0.0 0.00 0.00 0.00 73 1008.4
20260902080103 51 354 0.0 1.0 0.00 0.00 0.00 70 1008.2
20260902073102 52 335 0.0 2.0 0.00 0.00 0.00 70 1008.2
20260902071603 51 12 0.0 1.0 0.00 0.00 0.00 72 1008.3
20260902064603 52 332 0.0 1.0 0.00 0.00 0.00 70 1008.4
20260902063104 54 345 0.0 3.0 0.00 0.00 0.00 70 1008.6
20260902061602 57 336 0.0 1.0 0.00 0.00 0.00 65 1008.6
20260902054604 59 335 0.0 1.0 0.00 0.00 0.00 58 1008.6
20260902053103 59 23 2.0 2.0 0.00 0.00 0.00 60 1008.7
20260902051603 59 307 0.0 1.0 0.00 0.00 0.00 59 1008.8
20260902050105 61 283 0.0 3.0 0.00 0.00 0.00 58 1008.8
20260902044603 62 3 1.0 3.0 0.00 0.00 0.00 53 1008.8
20260902043107 62 319 0.0 4.0 0.00 0.00 0.00 57 1008.8
20260902041603 61 329 2.0 5.0 0.00 0.00 0.00 60 1008.8
20260902034603 62 328 2.0 5.0 0.00 0.00 0.00 60 1008.8
20260902033103 62 322 3.0 6.0 0.00 0.00 0.00 64 1008.7
20260902031602 62 297 0.0 4.0 0.00 0.00 0.00 66 1008.6
20260902030103 63 333 1.0 5.0 0.00 0.00 0.00 65 1008.6
20260902024606 63 295 0.0 4.0 0.00 0.00 0.00 69 1008.5
20260902023105 63 319 3.0 4.0 0.00 0.00 0.00 69 1008.4
20260902014606 68 6 0.0 1.0 0.00 0.00 0.00 67 1008.6
20260902013105 69 6 0.0 1.0 0.00 0.00 0.00 65 1008.6
20260902011603 71 257 0.0 0.0 0.00 0.00 0.00 60 1008.7
20260902004603 71 238 0.0 1.0 0.00 0.00 0.00 57 1009.1
20260902003104 72 208 0.0 0.0 0.00 0.00 0.00 57 1009.3
20260902000103 74 208 0.0 0.0 0.00 0.00 0.00 52 1010.0
20260901234603 74 208 0.0 1.0 0.00 0.00 0.00 51 1010.1
20260901233102 75 214 0.0 2.0 0.00 0.00 0.00 51 1010.4
20260901231605 77 212 1.0 3.0 0.00 0.00 0.00 47 1010.3
20260901230104 77 84 0.0 4.0 0.00 0.00 0.00 49 1010.5
20260901224604 75 172 0.0 4.0 0.00 0.00 0.00 50 1010.6
20260901223103 75 138 1.0 6.0 0.00 0.00 0.00 50 1010.8
20260901221606 73 82 2.0 4.0 0.00 0.00 0.00 52 1011.1
20260901214603 70 132 0.0 3.0 0.00 0.00 0.00 57 1011.2
20260901213103 66 194 0.0 4.0 0.00 0.00 0.00 67 1011.7
20260901211603 66 194 0.0 4.0 0.00 0.00 0.00 67 1011.7
20260901210106 63 5 0.0 3.0 0.00 0.00 0.00 65 1011.7
20260901204603 62 248 3.0 3.0 0.00 0.00 0.00 66 1012.8
20260901203103 62 260 0.0 3.0 0.00 0.00 0.00 62 1013.0
20260901201603 63 248 0.0 3.0 0.00 0.00 0.00 61 1013.3
20260901200107 66 352 0.0 1.0 0.00 0.00 0.00 48 1013.5
20260901193104 66 208 0.0 1.0 0.00 0.00 0.00 49 1013.4
20260901191602 65 203 0.0 4.0 0.00 0.00 0.00 51 1013.3
20260901184603 65 200 0.0 1.0 0.00 0.00 0.00 65 1012.9
20260901183104 65 31 0.0 1.0 0.00 0.00 0.00 59 1013.1
20260901181609 65 13 1.0 4.0 0.00 0.00 0.00 55 1013.2
20260901174604 64 315 0.0 4.0 0.00 0.00 0.00 53 1013.2
20260901173102 62 349 1.0 6.0 0.00 0.00 0.00 53 1012.9
20260901171602 62 107 0.0 2.0 0.00 0.00 0.00 58 1012.6
20260901164602 64 134 1.0 3.0 0.00 0.00 0.00 54 1012.4
20260901163103 65 13 0.0 3.0 0.00 0.00 0.00 45 1012.1
20260901161603 67 130 0.0 6.0 0.00 0.00 0.00 43 1012.3
20260901154602 65 306 1.0 1.0 0.00 0.00 0.00 44 1012.4
20260901153106 64 23 0.0 3.0 0.00 0.00 0.00 49 1012.2
20260901151603 63 19 0.0 0.0 0.00 0.00 0.00 44 1011.9
20260901144605 61 252 0.0 0.0 0.00 0.00 0.00 50 1011.2
20260901143102 58 327 0.0 1.0 0.00 0.00 0.00 50 1011.0
20260901140106 53 8 0.0 1.0 0.00 0.00 0.00 61 1010.7
20260901134604 53 19 0.0 1.0 0.00 0.00 0.00 55 1010.5
20260901133104 53 333 0.0 1.0 0.00 0.00 0.00 54 1010.3
20260901131605 53 340 0.0 1.0 0.00 0.00 0.00 53 1010.2
20260901124604 52 19 0.0 1.0 0.00 0.00 0.00 56 1010.1
20260901123102 53 330 2.0 2.0 0.00 0.00 0.00 53 1010.1
20260901121603 52 346 0.0 0.0 0.00 0.00 0.00 53 1010.4
20260901114605 53 346 0.0 1.0 0.00 0.00 0.00 49 1010.3
20260901113104 54 8 0.0 2.0 0.00 0.00 0.00 51 1010.1
20260901111603 53 15 0.0 1.0 0.00 0.00 0.00 53 1010.1
20260901110105 53 326 0.0 3.0 0.00 0.00 0.00 55 1010.1